SKYSAT-C15 (45790 NORAD) Tracking and Keplerian Element Data

This shows tracking and keplerian element data for the satellite.

Feedback or suggestion? Click here.




ElementValue
Catalog45790
NameSKYSAT-C15
Epoch Orbit349
Epoch Day186.42784588
Epoch Year2020
RAAN193.3748
Inclination52.9992
Eccentricity0.0017511
Argument of Perigee81.6802
Mean Anonmoly278.6197
Mean Motion15.67487792
Decay Rate3.787E-05
L11 45790U 20038BN 20186.42784588 .00003787 00000-0 39289-4 0 9991
L22 45790 52.9992 193.3748 0017511 81.6802 278.6197 15.67487792 3490

Live tracking and technical data element details for SKYSAT-C15 (NORAD 45790). SKYSAT-C15 can be tracked NOW for your location showing map with azimuth and elevation plus other details from your city location.

Track the satellite on the map from your city or location and see movement details for azimuth, elevation, latitude, longitude, range, height, and movement on the map or in text.







IsCatalogInMostPopularTable: catalog: 45790, numindb: 6
Update: records affected: 1



GetName: 45790 SKYSAT-C15

Hit Count: updated at: Sun, 05 Jul 2020 15:59:19 GMT